BOX523 OBBI-EDDP

Flight info

Callsign BOX523
Flight time 6h 4m
Altitude 30000
Route BHR B457 NARMI N697 HIL T540 ENABI L550 EGSIS/N0484F320 L550 NOVPA J981 DATOK L550 GENIV L324 LAKTO DCT OTHON UN128 LMO DCT EVIVI L863 EDIKA DCT OKANA DCT NEPOS DCT IRGOR DCT TONDO DCT ULZAK DCT PEPIK DCT ODLIV DCT LEGAZ DCT BEFRE DCT IVQOQ T951 YAWOY YAWOY1V
Aircraft B77L/H-SDE2E3FGHIJ5LORVWXY/LB1D1

Departure

Time 2026-05-06 14:28
Airport Bahrain International Airport (OBBI)

Arrival

Time 2026-05-06 20:33
Airport Leipzig/Halle Airport (EDDP)
Time Latitude Longitude Altitude Speed Heading
2026-05-06 13:44 26.27343 50.62160 19 ft 0 kts 213°
2026-05-06 14:13 26.27352 50.62166 19 ft 2 kts 213°
2026-05-06 14:13 26.27363 50.62177 19 ft 2 kts 231°
2026-05-06 14:14 26.27371 50.62191 19 ft 2 kts 246°
2026-05-06 14:14 26.27376 50.62206 19 ft 2 kts 261°
2026-05-06 14:14 26.27377 50.62223 19 ft 2 kts 276°
2026-05-06 14:14 26.27374 50.62239 19 ft 2 kts 290°
2026-05-06 14:15 26.27369 50.62252 19 ft 0 kts 303°
2026-05-06 14:15 26.27373 50.62245 19 ft 4 kts 301°
2026-05-06 14:15 26.27398 50.62201 19 ft 7 kts 304°
2026-05-06 14:15 26.27427 50.62169 19 ft 3 kts 325°
2026-05-06 14:16 26.27437 50.62162 19 ft 0 kts 330°
2026-05-06 14:20 26.27438 50.62162 19 ft 0 kts 330°
2026-05-06 14:20 26.27454 50.62156 19 ft 3 kts
2026-05-06 14:20 26.27494 50.62175 19 ft 8 kts 28°
2026-05-06 14:21 26.27535 50.62215 19 ft 7 kts 71°
2026-05-06 14:21 26.27523 50.62277 19 ft 9 kts 120°
2026-05-06 14:21 26.27483 50.62341 19 ft 11 kts 124°
2026-05-06 14:21 26.27436 50.62419 19 ft 13 kts 123°
2026-05-06 14:22 26.27383 50.62510 19 ft 14 kts 123°
2026-05-06 14:22 26.27325 50.62610 19 ft 16 kts 123°
2026-05-06 14:22 26.27261 50.62718 19 ft 17 kts 123°
2026-05-06 14:22 26.27194 50.62834 19 ft 18 kts 123°
2026-05-06 14:23 26.27119 50.62954 19 ft 20 kts 125°
2026-05-06 14:23 26.27034 50.63097 19 ft 24 kts 124°
2026-05-06 14:23 26.26936 50.63262 19 ft 25 kts 123°
2026-05-06 14:23 26.26840 50.63428 19 ft 25 kts 122°
2026-05-06 14:24 26.26743 50.63596 19 ft 26 kts 123°
2026-05-06 14:24 26.26641 50.63772 19 ft 26 kts 123°
2026-05-06 14:24 26.26547 50.63932 19 ft 24 kts 122°
2026-05-06 14:24 26.26452 50.64097 19 ft 26 kts 122°
2026-05-06 14:25 26.26355 50.64266 19 ft 25 kts 123°
2026-05-06 14:25 26.26259 50.64433 19 ft 25 kts 123°
2026-05-06 14:25 26.26167 50.64593 19 ft 23 kts 122°
2026-05-06 14:25 26.26086 50.64734 19 ft 20 kts 123°
2026-05-06 14:26 26.26022 50.64844 19 ft 12 kts 123°
2026-05-06 14:26 26.26005 50.64926 19 ft 10 kts 62°
2026-05-06 14:26 26.26054 50.64974 19 ft 9 kts 31°
2026-05-06 14:26 26.26117 50.65014 19 ft 9 kts 15°
2026-05-06 14:27 26.26158 50.64979 19 ft 7 kts 291°
2026-05-06 14:27 26.26180 50.64932 19 ft 5 kts 301°
2026-05-06 14:27 26.26199 50.64898 19 ft 4 kts 302°
2026-05-06 14:27 26.26244 50.64819 19 ft 34 kts 303°
2026-05-06 14:28 26.26507 50.64374 19 ft 102 kts 304°
2026-05-06 14:28 26.27008 50.63507 19 ft 162 kts 303°
2026-05-06 14:28 26.27679 50.62297 229 ft 194 kts 302°
2026-05-06 14:28 26.28358 50.61023 1008 ft 193 kts 303°
2026-05-06 14:29 26.29056 50.59762 1618 ft 199 kts 305°
2026-05-06 14:29 26.29839 50.58381 1960 ft 221 kts 305°
2026-05-06 14:29 26.30698 50.56861 2365 ft 241 kts 304°
2026-05-06 14:29 26.31404 50.55102 2813 ft 261 kts 279°
2026-05-06 14:30 26.31414 50.53053 3493 ft 269 kts 267°
2026-05-06 14:30 26.31284 50.50964 4268 ft 275 kts 266°
2026-05-06 14:30 26.31144 50.48844 5077 ft 278 kts 265°
2026-05-06 14:30 26.31002 50.46696 5825 ft 282 kts 264°
2026-05-06 14:31 26.30856 50.44514 6568 ft 286 kts 264°
2026-05-06 14:31 26.30709 50.42315 7361 ft 286 kts 265°
2026-05-06 14:31 26.30561 50.40106 8090 ft 289 kts 265°
2026-05-06 14:31 26.30412 50.37886 8811 ft 290 kts 265°
2026-05-06 14:32 26.30262 50.35652 9496 ft 292 kts 265°
2026-05-06 14:32 26.30158 50.33399 10171 ft 295 kts 272°
2026-05-06 14:32 26.30454 50.31094 10585 ft 309 kts 285°
2026-05-06 14:32 26.31242 50.28801 10924 ft 326 kts 295°
2026-05-06 14:33 26.32225 50.26464 11326 ft 340 kts 294°
2026-05-06 14:33 26.33185 50.23999 11767 ft 354 kts 292°
2026-05-06 14:33 26.34139 50.21415 12178 ft 368 kts 291°
2026-05-06 14:33 26.35111 50.18736 12671 ft 379 kts 291°
2026-05-06 14:34 26.36096 50.16007 13397 ft 383 kts 291°
2026-05-06 14:34 26.37086 50.13258 14123 ft 386 kts 291°
2026-05-06 14:34 26.38088 50.10472 14781 ft 391 kts 291°
2026-05-06 14:34 26.39103 50.07648 15427 ft 396 kts 291°
2026-05-06 14:35 26.40129 50.04790 16104 ft 400 kts 290°
2026-05-06 14:35 26.41164 50.01904 16755 ft 405 kts 290°
2026-05-06 14:35 26.42212 49.98979 17399 ft 409 kts 290°
2026-05-06 14:35 26.43268 49.96029 18071 ft 412 kts 290°
2026-05-06 14:36 26.44327 49.93068 18793 ft 413 kts 290°
2026-05-06 14:36 26.45390 49.90097 19493 ft 415 kts 289°
2026-05-06 14:36 26.46457 49.87108 20142 ft 417 kts 289°
2026-05-06 14:36 26.47529 49.84103 20812 ft 419 kts 289°
2026-05-06 14:37 26.48605 49.81086 21449 ft 421 kts 289°
2026-05-06 14:37 26.49666 49.78048 22065 ft 422 kts 286°
2026-05-06 14:37 26.50510 49.74924 22628 ft 423 kts 283°
2026-05-06 14:37 26.51307 49.71771 23225 ft 425 kts 283°
2026-05-06 14:38 26.52105 49.68603 23784 ft 426 kts 283°
2026-05-06 14:38 26.52909 49.65414 24276 ft 430 kts 283°
2026-05-06 14:38 26.53719 49.62199 24788 ft 432 kts 283°
2026-05-06 14:38 26.54532 49.58973 25312 ft 434 kts 282°
2026-05-06 14:39 26.55348 49.55730 25854 ft 436 kts 282°
2026-05-06 14:39 26.56167 49.52477 26376 ft 438 kts 282°
2026-05-06 14:39 26.56988 49.49208 26870 ft 440 kts 282°
2026-05-06 14:39 26.57815 49.45912 27320 ft 444 kts 282°
2026-05-06 14:40 26.58647 49.42595 27821 ft 446 kts 282°
2026-05-06 14:40 26.59481 49.39267 28350 ft 447 kts 282°
2026-05-06 14:40 26.60318 49.35924 28815 ft 450 kts 282°
2026-05-06 14:40 26.61161 49.32554 29296 ft 452 kts 281°
2026-05-06 14:41 26.62002 49.29189 29793 ft 452 kts 281°
2026-05-06 14:41 26.62844 49.25816 29861 ft 451 kts 281°
2026-05-06 14:41 26.64508 49.19143 29862 ft 445 kts 281°
2026-05-06 14:42 26.66164 49.12476 29870 ft 447 kts 281°
2026-05-06 14:42 26.67816 49.05817 29870 ft 445 kts 281°
2026-05-06 14:43 26.69464 48.99159 29871 ft 446 kts 281°
2026-05-06 14:43 26.71108 48.92505 29867 ft 444 kts 281°
2026-05-06 14:44 26.72746 48.85858 29871 ft 444 kts 281°
2026-05-06 14:45 26.75197 48.75883 29874 ft 445 kts 281°
2026-05-06 14:45 26.76413 48.69160 29871 ft 438 kts 269°
2026-05-06 14:46 26.76341 48.62394 29866 ft 435 kts 265°
2026-05-06 14:46 26.76169 48.55638 29873 ft 437 kts 265°
2026-05-06 14:47 26.75991 48.48870 29877 ft 436 kts 265°
2026-05-06 14:47 26.75808 48.42100 29879 ft 436 kts 265°
2026-05-06 14:48 26.75621 48.35337 29876 ft 437 kts 265°
2026-05-06 14:48 26.75434 48.28562 29885 ft 436 kts 265°
2026-05-06 14:49 26.75243 48.21789 29888 ft 436 kts 265°
2026-05-06 14:49 26.75050 48.15038 29889 ft 435 kts 265°
2026-05-06 14:50 26.74854 48.08292 29884 ft 434 kts 265°
2026-05-06 14:50 26.74654 48.01541 29894 ft 436 kts 265°
2026-05-06 14:51 26.74452 47.94797 29898 ft 435 kts 265°
2026-05-06 14:51 26.74277 47.88055 29903 ft 437 kts 268°
2026-05-06 14:52 26.74593 47.81284 29906 ft 437 kts 269°
2026-05-06 14:52 26.74941 47.74523 29917 ft 436 kts 269°
2026-05-06 14:53 26.75282 47.67762 29921 ft 437 kts 269°
2026-05-06 14:53 26.75619 47.60987 29924 ft 437 kts 269°
2026-05-06 14:54 26.75951 47.54227 29927 ft 436 kts 269°
2026-05-06 14:54 26.76280 47.47472 29934 ft 436 kts 269°
2026-05-06 14:55 26.76605 47.40710 29932 ft 436 kts 269°
2026-05-06 14:55 26.77304 47.33969 29946 ft 441 kts 275°
2026-05-06 14:56 26.78351 47.27235 29951 ft 440 kts 275°
2026-05-06 14:56 26.79393 47.20501 29952 ft 441 kts 275°
2026-05-06 14:57 26.80427 47.13778 29953 ft 440 kts 275°
2026-05-06 14:57 26.81455 47.07070 29952 ft 436 kts 275°
2026-05-06 14:58 26.82475 47.00385 29959 ft 439 kts 275°
2026-05-06 14:58 26.83496 46.93672 29962 ft 438 kts 275°
2026-05-06 14:59 26.84509 46.86986 29959 ft 437 kts 275°
2026-05-06 14:59 26.85520 46.80292 29954 ft 438 kts 275°
2026-05-06 15:00 26.86529 46.73587 29955 ft 437 kts 275°
2026-05-06 15:00 26.87534 46.66885 29961 ft 438 kts 275°
2026-05-06 15:01 26.88537 46.60181 29962 ft 438 kts 274°
2026-05-06 15:01 26.89536 46.53478 29958 ft 437 kts 275°
2026-05-06 15:02 26.90531 46.46774 29953 ft 438 kts 275°
2026-05-06 15:02 26.91524 46.40068 29961 ft 438 kts 274°
2026-05-06 15:03 26.92518 46.33360 29979 ft 436 kts 274°
2026-05-06 15:03 26.93503 46.26705 29989 ft 434 kts 274°
2026-05-06 15:04 26.94488 46.20024 29992 ft 435 kts 274°
2026-05-06 15:04 26.95468 46.13352 29998 ft 436 kts 274°
2026-05-06 15:05 26.96445 46.06683 29990 ft 434 kts 274°
2026-05-06 15:05 26.97419 46.00010 29983 ft 435 kts 274°
2026-05-06 15:06 26.98389 45.93344 29994 ft 434 kts 274°
2026-05-06 15:06 26.99354 45.86682 29997 ft 436 kts 274°
2026-05-06 15:07 27.00321 45.79992 29996 ft 435 kts 274°
2026-05-06 15:07 27.01281 45.73324 29995 ft 435 kts 274°
2026-05-06 15:08 27.02238 45.66657 29998 ft 435 kts 274°
2026-05-06 15:08 27.03192 45.59979 29998 ft 435 kts 274°
2026-05-06 15:09 27.04147 45.53281 29983 ft 436 kts 274°
2026-05-06 15:09 27.05101 45.46571 29982 ft 437 kts 274°
2026-05-06 15:10 27.05950 45.39877 29981 ft 434 kts 272°
2026-05-06 15:10 27.06682 45.33191 29990 ft 433 kts 272°
2026-05-06 15:11 27.07420 45.26488 29995 ft 435 kts 272°
2026-05-06 15:11 27.08161 45.19788 29997 ft 434 kts 272°
2026-05-06 15:12 27.08902 45.13067 29992 ft 435 kts 272°
2026-05-06 15:12 27.09642 45.06335 29997 ft 436 kts 272°
2026-05-06 15:13 27.10382 44.99585 29988 ft 436 kts 272°
2026-05-06 15:13 27.11116 44.92858 29989 ft 435 kts 271°
2026-05-06 15:14 27.11848 44.86113 29988 ft 437 kts 272°
2026-05-06 15:14 27.12578 44.79374 29983 ft 435 kts 271°
2026-05-06 15:15 27.13304 44.72631 29987 ft 436 kts 272°
2026-05-06 15:15 27.14027 44.65895 29978 ft 436 kts 272°
2026-05-06 15:16 27.14747 44.59167 29977 ft 434 kts 271°
2026-05-06 15:16 27.15462 44.52444 29976 ft 436 kts 271°
2026-05-06 15:17 27.16173 44.45734 29982 ft 434 kts 271°
2026-05-06 15:17 27.16880 44.39028 29988 ft 432 kts 271°
2026-05-06 15:18 27.17579 44.32322 30002 ft 434 kts 271°
2026-05-06 15:18 27.18275 44.25601 30006 ft 435 kts 271°
2026-05-06 15:19 27.18967 44.18886 30007 ft 433 kts 271°
2026-05-06 15:19 27.19655 44.12180 30008 ft 433 kts 271°
2026-05-06 15:20 27.20340 44.05463 30017 ft 436 kts 271°
2026-05-06 15:20 27.21025 43.98730 30022 ft 433 kts 271°
2026-05-06 15:21 27.21703 43.92020 30027 ft 434 kts 271°
2026-05-06 15:21 27.22379 43.85300 30024 ft 434 kts 271°
2026-05-06 15:22 27.23051 43.78600 30021 ft 433 kts 271°
2026-05-06 15:22 27.23720 43.71877 30017 ft 434 kts 271°
2026-05-06 15:23 27.24385 43.65188 30016 ft 432 kts 271°
2026-05-06 15:23 27.25047 43.58499 30005 ft 431 kts 271°
2026-05-06 15:24 27.25706 43.51807 30004 ft 432 kts 271°
2026-05-06 15:24 27.26361 43.45128 29998 ft 432 kts 271°
2026-05-06 15:25 27.27013 43.38441 30001 ft 431 kts 271°
2026-05-06 15:25 27.27662 43.31741 30014 ft 435 kts 270°
2026-05-06 15:26 27.28310 43.25043 30021 ft 431 kts 270°
2026-05-06 15:26 27.28952 43.18351 30020 ft 433 kts 270°
2026-05-06 15:27 27.29593 43.11653 30018 ft 431 kts 270°
2026-05-06 15:27 27.30228 43.04980 30019 ft 431 kts 270°
2026-05-06 15:28 27.30861 42.98279 30013 ft 432 kts 270°
2026-05-06 15:28 27.31491 42.91591 30018 ft 430 kts 270°
2026-05-06 15:29 27.32117 42.84899 30016 ft 432 kts 270°
2026-05-06 15:29 27.32739 42.78220 30018 ft 432 kts 270°
2026-05-06 15:30 27.33362 42.71493 30016 ft 432 kts 270°
2026-05-06 15:30 27.33977 42.64824 30025 ft 433 kts 270°
2026-05-06 15:31 27.34594 42.58096 30015 ft 432 kts 270°
2026-05-06 15:31 27.35203 42.51418 30022 ft 433 kts 270°
2026-05-06 15:32 27.36114 42.41359 30026 ft 430 kts 270°
2026-05-06 15:32 27.36715 42.34676 30026 ft 431 kts 270°
2026-05-06 15:33 27.37312 42.27996 30051 ft 431 kts 270°
2026-05-06 15:33 27.37907 42.21307 30054 ft 431 kts 270°
2026-05-06 15:34 27.38498 42.14633 30061 ft 429 kts 270°
2026-05-06 15:34 27.39084 42.07955 30055 ft 430 kts 270°
2026-05-06 15:35 27.39667 42.01302 30049 ft 428 kts 270°
2026-05-06 15:35 27.40244 41.94671 30047 ft 427 kts 270°
2026-05-06 15:36 27.40820 41.87998 30044 ft 429 kts 270°
2026-05-06 15:36 27.41392 41.81353 30053 ft 430 kts 270°
2026-05-06 15:37 27.41963 41.74687 30047 ft 427 kts 270°
2026-05-06 15:37 27.43080 41.68090 30054 ft 440 kts 283°
2026-05-06 15:38 27.44370 41.64934 30071 ft 452 kts 292°
2026-05-06 15:38 27.46009 41.61910 30068 ft 453 kts 294°
2026-05-06 15:38 27.49364 41.55921 30076 ft 453 kts 295°
2026-05-06 15:39 27.52718 41.49908 30101 ft 454 kts 294°
2026-05-06 15:39 27.56056 41.43906 30091 ft 452 kts 294°
2026-05-06 15:40 27.59395 41.37883 30084 ft 454 kts 294°
2026-05-06 15:40 27.62723 41.31871 30083 ft 454 kts 294°
2026-05-06 15:41 27.66050 41.25852 30067 ft 453 kts 294°
2026-05-06 15:41 27.69376 41.19824 30075 ft 453 kts 294°
2026-05-06 15:42 27.72693 41.13802 30057 ft 454 kts 294°
2026-05-06 15:42 27.76011 41.07774 30063 ft 451 kts 294°
2026-05-06 15:43 27.79319 41.01750 30077 ft 453 kts 294°
2026-05-06 15:43 27.82622 40.95731 30072 ft 452 kts 294°
2026-05-06 15:44 27.85928 40.89696 30061 ft 453 kts 294°
2026-05-06 15:44 27.89232 40.83658 30056 ft 451 kts 294°
2026-05-06 15:45 27.92525 40.77629 30055 ft 455 kts 294°
2026-05-06 15:45 27.95828 40.71576 30058 ft 451 kts 294°
2026-05-06 15:46 27.99111 40.65549 30074 ft 453 kts 294°
2026-05-06 15:46 28.02412 40.59480 30073 ft 453 kts 295°
2026-05-06 15:47 28.05706 40.53416 30064 ft 454 kts 295°
2026-05-06 15:47 28.08993 40.47359 30052 ft 452 kts 295°
2026-05-06 15:48 28.12275 40.41299 30054 ft 451 kts 295°
2026-05-06 15:48 28.15550 40.35244 30047 ft 452 kts 295°
2026-05-06 15:49 28.18827 40.29177 30057 ft 452 kts 295°
2026-05-06 15:49 28.22097 40.23114 30056 ft 453 kts 295°
2026-05-06 15:50 28.25377 40.17026 30049 ft 451 kts 295°
2026-05-06 15:50 28.28641 40.10956 30066 ft 453 kts 295°
2026-05-06 15:51 28.32288 40.05112 30059 ft 459 kts 302°
2026-05-06 15:51 28.36295 39.99499 30059 ft 458 kts 303°
2026-05-06 15:52 28.40303 39.93873 30058 ft 459 kts 303°
2026-05-06 15:52 28.44304 39.88243 30056 ft 459 kts 303°
2026-05-06 15:53 28.48299 39.82612 30062 ft 459 kts 303°
2026-05-06 15:53 28.52299 39.76965 30048 ft 459 kts 303°
2026-05-06 15:54 28.56288 39.71325 30052 ft 458 kts 303°
2026-05-06 15:54 28.60273 39.65682 30054 ft 459 kts 303°
2026-05-06 15:55 28.64263 39.60025 30057 ft 458 kts 303°
2026-05-06 15:55 28.68241 39.54378 30060 ft 459 kts 303°
2026-05-06 15:56 28.72226 39.48711 30060 ft 458 kts 303°
2026-05-06 15:56 28.76203 39.43050 30057 ft 458 kts 303°
2026-05-06 15:57 28.80181 39.37377 30051 ft 460 kts 303°
2026-05-06 15:57 28.84156 39.31705 30051 ft 457 kts 303°
2026-05-06 15:58 28.88127 39.26027 30048 ft 458 kts 303°
2026-05-06 15:58 28.92083 39.20365 30051 ft 458 kts 303°
2026-05-06 15:59 28.96050 39.14677 30055 ft 459 kts 303°
2026-05-06 15:59 29.00016 39.08984 30051 ft 459 kts 303°
2026-05-06 16:00 29.03981 39.03286 30042 ft 458 kts 303°
2026-05-06 16:00 29.07849 38.97510 30036 ft 455 kts 297°
2026-05-06 16:01 29.10318 38.90981 30036 ft 446 kts 281°
2026-05-06 16:01 29.10962 38.84023 30036 ft 441 kts 268°
2026-05-06 16:02 29.10977 38.77028 30031 ft 441 kts 268°
2026-05-06 16:02 29.10964 38.70043 30035 ft 441 kts 268°
2026-05-06 16:03 29.10936 38.63050 30035 ft 442 kts 268°
2026-05-06 16:03 29.10900 38.56057 30032 ft 441 kts 268°
2026-05-06 16:04 29.10857 38.49073 30031 ft 442 kts 268°
2026-05-06 16:04 29.10810 38.42070 30032 ft 442 kts 268°
2026-05-06 16:05 29.10758 38.35077 30031 ft 441 kts 268°
2026-05-06 16:05 29.10701 38.28062 30039 ft 442 kts 268°
2026-05-06 16:06 29.10641 38.21050 30043 ft 444 kts 268°
2026-05-06 16:06 29.10577 38.14031 30038 ft 442 kts 268°
2026-05-06 16:07 29.10508 38.07009 30049 ft 449 kts 268°
2026-05-06 16:07 29.10472 38.03421 30310 ft 455 kts 268°
2026-05-06 16:07 29.10435 37.99833 31063 ft 450 kts 268°
2026-05-06 16:08 29.10398 37.96301 31788 ft 444 kts 268°
2026-05-06 16:08 29.10360 37.92783 32014 ft 443 kts 268°
2026-05-06 16:08 29.10282 37.85828 32038 ft 436 kts 267°
2026-05-06 16:09 29.10201 37.78905 32036 ft 436 kts 268°
2026-05-06 16:09 29.10115 37.71985 32042 ft 437 kts 268°
2026-05-06 16:10 29.10027 37.65065 32042 ft 435 kts 268°
2026-05-06 16:10 29.09935 37.58162 32040 ft 436 kts 268°
2026-05-06 16:11 29.09839 37.51258 32054 ft 436 kts 268°
2026-05-06 16:11 29.09781 37.44360 32056 ft 435 kts 268°
2026-05-06 16:12 29.09734 37.37475 32065 ft 434 kts 268°
2026-05-06 16:12 29.09681 37.30582 32086 ft 433 kts 268°
2026-05-06 16:13 29.09623 37.23704 32086 ft 434 kts 268°
2026-05-06 16:13 29.09562 37.16838 32093 ft 434 kts 268°
2026-05-06 16:14 29.09497 37.09960 32096 ft 432 kts 268°
2026-05-06 16:14 29.09428 37.03098 32099 ft 434 kts 268°
2026-05-06 16:15 29.09356 36.96223 32103 ft 434 kts 268°
2026-05-06 16:15 29.09280 36.89361 32102 ft 433 kts 268°
2026-05-06 16:16 29.09201 36.82506 32086 ft 433 kts 268°
2026-05-06 16:16 29.09118 36.75645 32081 ft 433 kts 268°
2026-05-06 16:17 29.09032 36.68785 32071 ft 433 kts 268°
2026-05-06 16:17 29.08943 36.61926 32064 ft 432 kts 268°
2026-05-06 16:18 29.08850 36.55064 32056 ft 433 kts 268°
2026-05-06 16:18 29.08753 36.48228 32044 ft 431 kts 268°
2026-05-06 16:19 29.08586 36.41399 32038 ft 431 kts 267°
2026-05-06 16:19 29.08396 36.34569 32035 ft 431 kts 267°
2026-05-06 16:20 29.08205 36.27738 32044 ft 431 kts 267°
2026-05-06 16:20 29.08013 36.20912 32042 ft 431 kts 267°
2026-05-06 16:21 29.07817 36.14084 32042 ft 431 kts 267°
2026-05-06 16:21 29.07619 36.07267 32050 ft 430 kts 267°
2026-05-06 16:22 29.07417 36.00447 32050 ft 431 kts 267°
2026-05-06 16:22 29.07213 35.93643 32057 ft 429 kts 267°
2026-05-06 16:23 29.07005 35.86838 32064 ft 429 kts 267°
2026-05-06 16:23 29.06794 35.80030 32066 ft 431 kts 267°
2026-05-06 16:24 29.06578 35.73185 32081 ft 433 kts 267°
2026-05-06 16:24 29.06358 35.66346 32080 ft 432 kts 267°
2026-05-06 16:25 29.06136 35.59510 32085 ft 433 kts 267°
2026-05-06 16:25 29.05909 35.52663 32080 ft 432 kts 267°
2026-05-06 16:26 29.05680 35.45824 32078 ft 433 kts 267°
2026-05-06 16:26 29.05446 35.38978 32071 ft 434 kts 267°
2026-05-06 16:27 29.05208 35.32103 32086 ft 434 kts 266°
2026-05-06 16:27 29.04967 35.25236 32088 ft 434 kts 267°
2026-05-06 16:28 29.04722 35.18368 32084 ft 434 kts 267°
2026-05-06 16:28 29.04474 35.11493 32072 ft 434 kts 267°
2026-05-06 16:29 29.04223 35.04634 32056 ft 433 kts 267°
2026-05-06 16:29 29.03968 34.97778 32061 ft 434 kts 267°
2026-05-06 16:30 29.03753 34.92060 32051 ft 433 kts 267°
2026-05-06 16:30 29.03448 34.84064 32027 ft 433 kts 267°
2026-05-06 16:31 29.03333 34.77194 32015 ft 434 kts 269°
2026-05-06 16:31 29.03718 34.70356 32002 ft 435 kts 281°
2026-05-06 16:32 29.06007 34.63949 32026 ft 443 kts 299°
2026-05-06 16:32 29.10151 34.58683 32030 ft 454 kts 318°
2026-05-06 16:33 29.15732 34.55130 32052 ft 465 kts 331°
2026-05-06 16:34 29.24331 34.50133 32059 ft 460 kts 326°
2026-05-06 16:34 29.29839 34.46405 32069 ft 459 kts 323°
2026-05-06 16:35 29.35236 34.42531 32076 ft 458 kts 323°
2026-05-06 16:35 29.40582 34.38575 32082 ft 457 kts 322°
2026-05-06 16:36 29.45891 34.34583 32083 ft 457 kts 321°
2026-05-06 16:36 29.51186 34.30565 32093 ft 456 kts 321°
2026-05-06 16:37 29.56472 34.26533 32097 ft 457 kts 321°
2026-05-06 16:37 29.61823 34.22615 32094 ft 459 kts 326°
2026-05-06 16:38 29.67473 34.19177 32088 ft 460 kts 327°
2026-05-06 16:38 29.73125 34.15749 32083 ft 459 kts 327°
2026-05-06 16:39 29.78780 34.12310 32082 ft 459 kts 327°
2026-05-06 16:39 29.84427 34.08868 32087 ft 461 kts 327°
2026-05-06 16:40 29.90076 34.05420 32083 ft 460 kts 327°
2026-05-06 16:40 29.95729 34.01963 32082 ft 460 kts 327°
2026-05-06 16:41 30.01371 33.98509 32083 ft 460 kts 327°
2026-05-06 16:41 30.07013 33.95050 32079 ft 459 kts 327°
2026-05-06 16:42 30.12665 33.91580 32078 ft 459 kts 327°
2026-05-06 16:42 30.18300 33.88116 32077 ft 458 kts 327°
2026-05-06 16:43 30.23920 33.84657 32079 ft 458 kts 327°
2026-05-06 16:43 30.29541 33.81192 32078 ft 458 kts 327°
2026-05-06 16:44 30.35168 33.77719 32079 ft 459 kts 327°
2026-05-06 16:44 30.40785 33.74249 32075 ft 458 kts 327°
2026-05-06 16:45 30.46399 33.70775 32072 ft 457 kts 327°
2026-05-06 16:45 30.52001 33.67304 32078 ft 457 kts 327°
2026-05-06 16:46 30.57605 33.63827 32075 ft 457 kts 327°
2026-05-06 16:46 30.63205 33.60348 32074 ft 457 kts 327°
2026-05-06 16:47 30.68805 33.56865 32077 ft 457 kts 328°
2026-05-06 16:47 30.74407 33.53375 32078 ft 456 kts 328°
2026-05-06 16:48 30.79987 33.49895 32079 ft 456 kts 328°
2026-05-06 16:48 30.85575 33.46406 32079 ft 456 kts 328°
2026-05-06 16:49 30.91157 33.42915 32072 ft 455 kts 328°
2026-05-06 16:49 30.96735 33.39422 32074 ft 455 kts 328°
2026-05-06 16:50 31.02315 33.35923 32073 ft 456 kts 328°
2026-05-06 16:50 31.07908 33.32411 32078 ft 455 kts 328°
2026-05-06 16:51 31.13480 33.28908 32084 ft 454 kts 327°
2026-05-06 16:51 31.19032 33.25413 32076 ft 453 kts 328°
2026-05-06 16:52 31.24582 33.21914 32081 ft 454 kts 328°
2026-05-06 16:52 31.30123 33.18416 32080 ft 453 kts 328°
2026-05-06 16:53 31.35796 33.15216 32078 ft 458 kts 338°
2026-05-06 16:53 31.42119 33.13957 32081 ft 466 kts 352°
2026-05-06 16:54 31.48604 33.13646 32081 ft 466 kts 353°
2026-05-06 16:54 31.55078 33.13337 32079 ft 466 kts 353°
2026-05-06 16:55 31.61544 33.13021 32080 ft 465 kts 353°
2026-05-06 16:55 31.68002 33.12701 32078 ft 465 kts 353°
2026-05-06 16:56 31.74441 33.12265 32071 ft 460 kts 347°
2026-05-06 16:56 31.80471 33.10139 32073 ft 450 kts 330°
2026-05-06 16:57 31.85581 33.06074 32071 ft 441 kts 314°
2026-05-06 16:57 31.89832 33.00912 32076 ft 441 kts 311°
2026-05-06 16:58 31.94031 32.95689 32075 ft 440 kts 311°
2026-05-06 16:58 31.98230 32.90455 32077 ft 440 kts 311°
2026-05-06 16:59 32.02419 32.85227 32073 ft 439 kts 311°
2026-05-06 16:59 32.06605 32.79995 32072 ft 440 kts 311°
2026-05-06 17:00 32.10788 32.74758 32074 ft 439 kts 311°
2026-05-06 17:00 32.14964 32.69524 32073 ft 439 kts 311°
2026-05-06 17:01 32.19144 32.64277 32074 ft 438 kts 311°
2026-05-06 17:01 32.23309 32.59040 32073 ft 438 kts 311°
2026-05-06 17:02 32.27475 32.53795 32071 ft 438 kts 311°
2026-05-06 17:02 32.31634 32.48552 32071 ft 439 kts 311°
2026-05-06 17:03 32.35793 32.43300 32069 ft 437 kts 311°
2026-05-06 17:03 32.39943 32.38053 32070 ft 437 kts 311°
2026-05-06 17:04 32.44092 32.32800 32081 ft 439 kts 310°
2026-05-06 17:04 32.48240 32.27540 32080 ft 437 kts 310°
2026-05-06 17:05 32.52376 32.22287 32078 ft 437 kts 310°
2026-05-06 17:05 32.56509 32.17031 32077 ft 436 kts 310°
2026-05-06 17:06 32.60635 32.11776 32076 ft 436 kts 310°
2026-05-06 17:06 32.64790 32.06564 32074 ft 437 kts 314°
2026-05-06 17:07 32.69253 32.01666 32074 ft 437 kts 315°
2026-05-06 17:07 32.73710 31.96763 32074 ft 438 kts 314°
2026-05-06 17:08 32.78150 31.91846 32076 ft 437 kts 314°
2026-05-06 17:08 32.82574 31.86929 32073 ft 436 kts 314°
2026-05-06 17:09 32.86991 31.82005 32073 ft 436 kts 314°
2026-05-06 17:09 32.91412 31.77066 32076 ft 438 kts 314°
2026-05-06 17:10 32.95832 31.72121 32074 ft 436 kts 314°
2026-05-06 17:10 33.00235 31.67186 32070 ft 435 kts 314°
2026-05-06 17:11 33.04644 31.62236 32068 ft 436 kts 314°
2026-05-06 17:11 33.09047 31.57287 32068 ft 438 kts 314°
2026-05-06 17:12 33.13468 31.52310 32071 ft 434 kts 314°
2026-05-06 17:12 33.17867 31.47351 32071 ft 433 kts 314°
2026-05-06 17:13 33.22251 31.42401 32071 ft 435 kts 314°
2026-05-06 17:13 33.26637 31.37441 32071 ft 433 kts 314°
2026-05-06 17:14 33.31026 31.32471 32079 ft 434 kts 314°
2026-05-06 17:14 33.35396 31.27516 32080 ft 434 kts 314°
2026-05-06 17:15 33.39767 31.22551 32079 ft 433 kts 314°
2026-05-06 17:15 33.44124 31.17596 32078 ft 433 kts 314°
2026-05-06 17:16 33.48480 31.12634 32078 ft 432 kts 314°
2026-05-06 17:16 33.52824 31.07679 32076 ft 432 kts 314°
2026-05-06 17:17 33.57163 31.02723 32074 ft 430 kts 314°
2026-05-06 17:17 33.61490 30.97772 32074 ft 432 kts 314°
2026-05-06 17:18 33.65819 30.92813 32074 ft 430 kts 314°
2026-05-06 17:18 33.70142 30.87853 32075 ft 433 kts 314°
2026-05-06 17:19 33.74477 30.82871 32073 ft 431 kts 314°
2026-05-06 17:19 33.78793 30.77906 32070 ft 430 kts 314°
2026-05-06 17:20 33.83116 30.72924 32070 ft 431 kts 314°
2026-05-06 17:20 33.87432 30.67942 32070 ft 431 kts 314°
2026-05-06 17:21 33.91747 30.62955 32070 ft 430 kts 314°
2026-05-06 17:21 33.96071 30.57950 32068 ft 432 kts 314°
2026-05-06 17:22 34.00385 30.52949 32067 ft 430 kts 314°
2026-05-06 17:22 34.04688 30.47954 32067 ft 430 kts 314°
2026-05-06 17:23 34.08986 30.42956 32067 ft 431 kts 314°
2026-05-06 17:23 34.13286 30.37948 32072 ft 430 kts 314°
2026-05-06 17:24 34.17587 30.32933 32081 ft 430 kts 314°
2026-05-06 17:24 34.21875 30.27925 32082 ft 429 kts 314°
2026-05-06 17:25 34.26159 30.22913 32081 ft 429 kts 314°
2026-05-06 17:25 34.30432 30.17908 32079 ft 427 kts 314°
2026-05-06 17:26 34.34713 30.12886 32078 ft 430 kts 314°
2026-05-06 17:26 34.38980 30.07873 32077 ft 428 kts 314°
2026-05-06 17:27 34.43262 30.02834 32077 ft 431 kts 314°
2026-05-06 17:27 34.47513 29.97773 32078 ft 428 kts 313°
2026-05-06 17:28 34.51680 29.92629 32076 ft 428 kts 313°
2026-05-06 17:28 34.55847 29.87482 32074 ft 428 kts 313°
2026-05-06 17:29 34.60016 29.82330 32074 ft 429 kts 313°
2026-05-06 17:29 34.64176 29.77187 32072 ft 427 kts 313°
2026-05-06 17:30 34.68332 29.72040 32070 ft 427 kts 313°
2026-05-06 17:30 34.72477 29.66900 32072 ft 427 kts 313°
2026-05-06 17:31 34.76618 29.61757 32070 ft 427 kts 314°
2026-05-06 17:31 34.80759 29.56608 32069 ft 426 kts 313°
2026-05-06 17:32 34.84908 29.51440 32069 ft 428 kts 313°
2026-05-06 17:32 34.89046 29.46279 32070 ft 427 kts 313°
2026-05-06 17:33 34.93174 29.41121 32064 ft 426 kts 314°
2026-05-06 17:33 34.97310 29.35946 32068 ft 426 kts 314°
2026-05-06 17:34 35.01759 29.31189 32080 ft 428 kts 321°
2026-05-06 17:34 35.06529 29.26851 32073 ft 427 kts 321°
2026-05-06 17:35 35.11301 29.22505 32080 ft 428 kts 321°
2026-05-06 17:35 35.16069 29.18152 32080 ft 428 kts 321°
2026-05-06 17:36 35.23188 29.11637 32079 ft 427 kts 321°
2026-05-06 17:36 35.27932 29.07286 32078 ft 428 kts 321°
2026-05-06 17:37 35.32682 29.02922 32078 ft 427 kts 321°
2026-05-06 17:37 35.37422 28.98561 32076 ft 427 kts 321°
2026-05-06 17:38 35.42167 28.94189 32074 ft 426 kts 321°
2026-05-06 17:38 35.46901 28.89821 32072 ft 427 kts 321°
2026-05-06 17:39 35.51638 28.85443 32072 ft 426 kts 321°
2026-05-06 17:39 35.56368 28.81065 32070 ft 427 kts 321°
2026-05-06 17:40 35.61094 28.76684 32069 ft 427 kts 321°
2026-05-06 17:40 35.65822 28.72295 32066 ft 425 kts 321°
2026-05-06 17:41 35.70545 28.67903 32067 ft 427 kts 321°
2026-05-06 17:41 35.75269 28.63504 32061 ft 426 kts 322°
2026-05-06 17:42 35.79982 28.59109 32060 ft 426 kts 322°
2026-05-06 17:42 35.84695 28.54706 32059 ft 426 kts 321°
2026-05-06 17:43 35.89408 28.50297 32057 ft 425 kts 322°
2026-05-06 17:43 35.94109 28.45892 32051 ft 426 kts 322°
2026-05-06 17:44 35.98827 28.41465 32050 ft 427 kts 322°
2026-05-06 17:44 36.03536 28.37038 32051 ft 426 kts 322°
2026-05-06 17:45 36.08250 28.32594 32056 ft 428 kts 321°
2026-05-06 17:45 36.12994 28.28114 32070 ft 431 kts 321°
2026-05-06 17:46 36.17768 28.23599 32075 ft 433 kts 321°
2026-05-06 17:46 36.22517 28.19102 32067 ft 428 kts 321°
2026-05-06 17:47 36.27217 28.14643 32063 ft 425 kts 321°
2026-05-06 17:47 36.31924 28.10171 32061 ft 427 kts 321°
2026-05-06 17:48 36.37059 28.06476 32065 ft 430 kts 333°
2026-05-06 17:48 36.42496 28.03433 32060 ft 429 kts 333°
2026-05-06 17:49 36.47946 28.00381 32056 ft 430 kts 333°
2026-05-06 17:49 36.53409 27.97385 32047 ft 428 kts 332°
2026-05-06 17:50 36.58689 27.93948 32053 ft 428 kts 330°
2026-05-06 17:50 36.63941 27.90480 32052 ft 428 kts 330°
2026-05-06 17:51 36.69195 27.87003 32057 ft 429 kts 330°
2026-05-06 17:51 36.74452 27.83562 32053 ft 427 kts 331°
2026-05-06 17:52 36.79712 27.80144 32055 ft 427 kts 331°
2026-05-06 17:52 36.84961 27.76726 32053 ft 425 kts 331°
2026-05-06 17:53 36.90212 27.73298 32052 ft 428 kts 331°
2026-05-06 17:53 36.95463 27.69864 32055 ft 426 kts 331°
2026-05-06 17:54 37.00715 27.66424 32059 ft 427 kts 331°
2026-05-06 17:54 37.05973 27.62975 32058 ft 426 kts 331°
2026-05-06 17:55 37.11211 27.59533 32067 ft 426 kts 331°
2026-05-06 17:55 37.16450 27.56084 32070 ft 426 kts 331°
2026-05-06 17:56 37.21498 27.52757 32068 ft 425 kts 331°
2026-05-06 17:56 37.26736 27.49299 32067 ft 426 kts 331°
2026-05-06 17:57 37.31962 27.45843 32067 ft 424 kts 331°
2026-05-06 17:57 37.37181 27.42386 32061 ft 425 kts 331°
2026-05-06 17:58 37.42406 27.38920 32057 ft 424 kts 331°
2026-05-06 17:58 37.47624 27.35453 32054 ft 425 kts 331°
2026-05-06 17:59 37.52848 27.31976 32064 ft 425 kts 330°
2026-05-06 17:59 37.58057 27.28505 32063 ft 424 kts 331°
2026-05-06 18:00 37.63273 27.25022 32060 ft 425 kts 330°
2026-05-06 18:00 37.68480 27.21541 32061 ft 424 kts 331°
2026-05-06 18:01 37.73693 27.18049 32064 ft 425 kts 331°
2026-05-06 18:01 37.78905 27.14553 32062 ft 424 kts 331°
2026-05-06 18:02 37.84109 27.11056 32066 ft 424 kts 331°
2026-05-06 18:02 37.89312 27.07554 32072 ft 425 kts 330°
2026-05-06 18:03 37.94518 27.04046 32074 ft 424 kts 330°
2026-05-06 18:03 37.99719 27.00534 32072 ft 425 kts 330°
2026-05-06 18:04 38.04921 26.97016 32072 ft 424 kts 330°
2026-05-06 18:04 38.10119 26.93495 32071 ft 425 kts 331°
2026-05-06 18:05 38.15342 26.89951 32083 ft 425 kts 331°
2026-05-06 18:05 38.20551 26.86412 32084 ft 425 kts 330°
2026-05-06 18:06 38.25751 26.82872 32084 ft 425 kts 331°
2026-05-06 18:06 38.30950 26.79333 32079 ft 423 kts 331°
2026-05-06 18:07 38.36135 26.75796 32076 ft 423 kts 331°
2026-05-06 18:07 38.41327 26.72249 32075 ft 424 kts 331°
2026-05-06 18:08 38.46525 26.68692 32076 ft 426 kts 331°
2026-05-06 18:08 38.51728 26.65126 32079 ft 425 kts 331°
2026-05-06 18:09 38.56931 26.61554 32078 ft 424 kts 331°
2026-05-06 18:09 38.62117 26.57987 32077 ft 424 kts 331°
2026-05-06 18:10 38.67316 26.54406 32075 ft 425 kts 331°
2026-05-06 18:10 38.72513 26.50820 32071 ft 425 kts 331°
2026-05-06 18:11 38.77714 26.47226 32068 ft 426 kts 331°
2026-05-06 18:11 38.82882 26.43572 32062 ft 424 kts 327°
2026-05-06 18:12 38.87522 26.38904 32067 ft 426 kts 321°
2026-05-06 18:12 38.92087 26.34056 32071 ft 427 kts 321°
2026-05-06 18:13 38.96669 26.29184 32072 ft 428 kts 321°
2026-05-06 18:13 39.01240 26.24315 32070 ft 427 kts 321°
2026-05-06 18:14 39.05804 26.19447 32070 ft 427 kts 321°
2026-05-06 18:14 39.10367 26.14571 32071 ft 427 kts 320°
2026-05-06 18:15 39.14939 26.09678 32081 ft 428 kts 320°
2026-05-06 18:15 39.19502 26.04784 32080 ft 428 kts 320°
2026-05-06 18:16 39.24073 25.99874 32081 ft 429 kts 320°
2026-05-06 18:16 39.28646 25.94954 32077 ft 429 kts 320°
2026-05-06 18:17 39.33172 25.89962 32073 ft 429 kts 320°
2026-05-06 18:17 39.37681 25.84925 32068 ft 429 kts 320°
2026-05-06 18:18 39.42198 25.79876 32066 ft 431 kts 320°
2026-05-06 18:18 39.46707 25.74830 32059 ft 429 kts 319°
2026-05-06 18:19 39.51209 25.69785 32053 ft 429 kts 320°
2026-05-06 18:19 39.55717 25.64725 32051 ft 430 kts 319°
2026-05-06 18:20 39.60218 25.59663 32048 ft 429 kts 320°
2026-05-06 18:20 39.64719 25.54593 32044 ft 431 kts 319°
2026-05-06 18:21 39.69237 25.49495 32046 ft 431 kts 319°
2026-05-06 18:21 39.73751 25.44391 32040 ft 431 kts 320°
2026-05-06 18:22 39.78269 25.39275 32044 ft 431 kts 319°
2026-05-06 18:22 39.82784 25.34152 32038 ft 431 kts 319°
2026-05-06 18:23 39.87313 25.29005 32045 ft 432 kts 319°
2026-05-06 18:23 39.91833 25.23858 32039 ft 432 kts 319°
2026-05-06 18:24 39.96313 25.18657 32038 ft 432 kts 318°
2026-05-06 18:24 40.00769 25.13447 32039 ft 431 kts 318°
2026-05-06 18:25 40.05230 25.08226 32036 ft 432 kts 318°
2026-05-06 18:25 40.09695 25.02992 32033 ft 433 kts 318°
2026-05-06 18:26 40.14171 24.97737 32044 ft 433 kts 318°
2026-05-06 18:26 40.18648 24.92472 32048 ft 434 kts 318°
2026-05-06 18:27 40.23124 24.87198 32056 ft 435 kts 318°
2026-05-06 18:27 40.27597 24.81919 32054 ft 433 kts 318°
2026-05-06 18:28 40.32067 24.76632 32051 ft 433 kts 318°
2026-05-06 18:28 40.36535 24.71339 32050 ft 435 kts 318°
2026-05-06 18:29 40.41007 24.66030 32049 ft 434 kts 318°
2026-05-06 18:29 40.45480 24.60711 32047 ft 435 kts 318°
2026-05-06 18:30 40.49951 24.55384 32044 ft 434 kts 318°
2026-05-06 18:30 40.54419 24.50051 32047 ft 435 kts 318°
2026-05-06 18:31 40.58881 24.44714 32045 ft 435 kts 318°
2026-05-06 18:31 40.63348 24.39362 32046 ft 435 kts 318°
2026-05-06 18:32 40.67808 24.34008 32048 ft 435 kts 317°
2026-05-06 18:32 40.72269 24.28643 32047 ft 436 kts 317°
2026-05-06 18:33 40.76738 24.23257 32050 ft 435 kts 317°
2026-05-06 18:33 40.81201 24.17870 32050 ft 436 kts 317°
2026-05-06 18:34 40.85662 24.12473 32048 ft 435 kts 317°
2026-05-06 18:34 40.90123 24.07067 32048 ft 436 kts 317°
2026-05-06 18:35 40.94587 24.01647 32048 ft 437 kts 317°
2026-05-06 18:35 40.99050 23.96217 32051 ft 437 kts 317°
2026-05-06 18:36 41.03519 23.90770 32050 ft 437 kts 317°
2026-05-06 18:36 41.07975 23.85327 32055 ft 437 kts 317°
2026-05-06 18:37 41.12439 23.79865 32068 ft 438 kts 317°
2026-05-06 18:37 41.16899 23.74396 32082 ft 437 kts 317°
2026-05-06 18:38 41.21359 23.68918 32094 ft 438 kts 317°
2026-05-06 18:38 41.25807 23.63443 32104 ft 437 kts 317°
2026-05-06 18:39 41.30254 23.57959 32098 ft 437 kts 316°
2026-05-06 18:40 41.36907 23.49734 32086 ft 436 kts 316°
2026-05-06 18:40 41.41640 23.44697 32070 ft 439 kts 329°
2026-05-06 18:41 41.47108 23.41059 32060 ft 441 kts 333°
2026-05-06 18:41 41.52618 23.37492 32056 ft 441 kts 332°
2026-05-06 18:42 41.58120 23.33911 32072 ft 440 kts 332°
2026-05-06 18:42 41.63614 23.30321 32084 ft 440 kts 332°
2026-05-06 18:43 41.69102 23.26725 32082 ft 441 kts 331°
2026-05-06 18:43 41.74603 23.23112 32081 ft 442 kts 332°
2026-05-06 18:44 41.80100 23.19493 32094 ft 442 kts 332°
2026-05-06 18:44 41.85615 23.15856 32097 ft 442 kts 331°
2026-05-06 18:45 41.91120 23.12218 32097 ft 441 kts 331°
2026-05-06 18:45 41.96618 23.08577 32090 ft 441 kts 331°
2026-05-06 18:46 42.02108 23.04934 32072 ft 441 kts 331°
2026-05-06 18:46 42.07609 23.01277 32067 ft 441 kts 331°
2026-05-06 18:47 42.13105 22.97616 32067 ft 443 kts 331°
2026-05-06 18:47 42.18615 22.93939 32067 ft 443 kts 331°
2026-05-06 18:48 42.24126 22.90254 32063 ft 443 kts 331°
2026-05-06 18:48 42.29639 22.86560 32063 ft 444 kts 332°
2026-05-06 18:49 42.35162 22.82852 32056 ft 444 kts 332°
2026-05-06 18:49 42.40678 22.79142 32055 ft 444 kts 331°
2026-05-06 18:50 42.46208 22.75415 32055 ft 445 kts 331°
2026-05-06 18:50 42.51747 22.71675 32052 ft 446 kts 332°
2026-05-06 18:51 42.57277 22.67933 32065 ft 445 kts 332°
2026-05-06 18:51 42.62817 22.64177 32072 ft 446 kts 331°
2026-05-06 18:52 42.68347 22.60420 32080 ft 445 kts 331°
2026-05-06 18:52 42.73880 22.56654 32089 ft 447 kts 331°
2026-05-06 18:53 42.79426 22.52871 32081 ft 447 kts 331°
2026-05-06 18:53 42.84943 22.48999 32073 ft 446 kts 327°
2026-05-06 18:54 42.90134 22.44429 32077 ft 446 kts 325°
2026-05-06 18:54 42.95308 22.39808 32070 ft 446 kts 325°
2026-05-06 18:55 43.00472 22.35189 32053 ft 444 kts 325°
2026-05-06 18:55 43.05641 22.30556 32046 ft 445 kts 324°
2026-05-06 18:56 43.10823 22.25904 32041 ft 446 kts 324°
2026-05-06 18:56 43.16007 22.21241 32031 ft 445 kts 324°
2026-05-06 18:57 43.21176 22.16582 32016 ft 446 kts 324°
2026-05-06 18:57 43.26338 22.11921 32010 ft 446 kts 324°
2026-05-06 18:58 43.31502 22.07248 32004 ft 445 kts 324°
2026-05-06 18:58 43.36658 22.02572 32001 ft 446 kts 324°
2026-05-06 18:59 43.41820 21.97881 32002 ft 446 kts 324°
2026-05-06 18:59 43.46982 21.93179 31999 ft 446 kts 324°
2026-05-06 19:00 43.52148 21.88466 31994 ft 447 kts 324°
2026-05-06 19:00 43.57315 21.83740 31994 ft 448 kts 324°
2026-05-06 19:01 43.62500 21.78989 31995 ft 448 kts 324°
2026-05-06 19:01 43.67671 21.74240 32001 ft 447 kts 324°
2026-05-06 19:02 43.72842 21.69482 32001 ft 447 kts 324°
2026-05-06 19:02 43.78021 21.64706 32002 ft 449 kts 324°
2026-05-06 19:03 43.83206 21.59914 31993 ft 449 kts 324°
2026-05-06 19:03 43.88388 21.55115 31987 ft 450 kts 324°
2026-05-06 19:04 43.93586 21.50290 31980 ft 450 kts 324°
2026-05-06 19:04 43.98768 21.45471 31972 ft 450 kts 324°
2026-05-06 19:05 44.03974 21.40675 31973 ft 451 kts 325°
2026-05-06 19:05 44.09215 21.35913 31961 ft 451 kts 325°
2026-05-06 19:06 44.14465 21.31126 31970 ft 452 kts 324°
2026-05-06 19:06 44.19713 21.26329 31963 ft 451 kts 324°
2026-05-06 19:07 44.24962 21.21519 31961 ft 452 kts 324°
2026-05-06 19:07 44.30210 21.16699 31959 ft 454 kts 324°
2026-05-06 19:08 44.35447 21.11878 31958 ft 452 kts 324°
2026-05-06 19:08 44.40687 21.07043 31954 ft 453 kts 324°
2026-05-06 19:09 44.45941 21.02185 31936 ft 454 kts 324°
2026-05-06 19:09 44.51191 20.97320 31938 ft 452 kts 324°
2026-05-06 19:10 44.56425 20.92460 31933 ft 452 kts 323°
2026-05-06 19:10 44.61658 20.87589 31930 ft 453 kts 323°
2026-05-06 19:11 44.66886 20.82712 31925 ft 453 kts 323°
2026-05-06 19:11 44.72110 20.77828 31921 ft 452 kts 323°
2026-05-06 19:12 44.77174 20.72666 31916 ft 451 kts 321°
2026-05-06 19:12 44.82202 20.67367 31909 ft 452 kts 320°
2026-05-06 19:13 44.87224 20.62084 31914 ft 452 kts 320°
2026-05-06 19:13 44.92242 20.56807 31912 ft 450 kts 320°
2026-05-06 19:14 44.97263 20.51520 31910 ft 453 kts 320°
2026-05-06 19:14 45.02300 20.46208 31906 ft 453 kts 320°
2026-05-06 19:15 45.07332 20.40892 31906 ft 453 kts 320°
2026-05-06 19:15 45.12358 20.35569 31905 ft 454 kts 320°
2026-05-06 19:16 45.17405 20.30214 31909 ft 454 kts 320°
2026-05-06 19:16 45.22449 20.24851 31911 ft 454 kts 320°
2026-05-06 19:17 45.27495 20.19473 31914 ft 455 kts 320°
2026-05-06 19:17 45.32542 20.14081 31917 ft 456 kts 320°
2026-05-06 19:18 45.37586 20.08679 31921 ft 456 kts 319°
2026-05-06 19:18 45.42636 20.03259 31919 ft 456 kts 319°
2026-05-06 19:19 45.47691 19.97821 31918 ft 456 kts 319°
2026-05-06 19:19 45.52742 19.92375 31913 ft 457 kts 319°
2026-05-06 19:20 45.57806 19.86903 31915 ft 459 kts 319°
2026-05-06 19:20 45.62877 19.81409 31912 ft 459 kts 319°
2026-05-06 19:21 45.67952 19.75899 31909 ft 459 kts 319°
2026-05-06 19:21 45.73018 19.70386 31912 ft 459 kts 319°
2026-05-06 19:22 45.78075 19.64871 31909 ft 459 kts 319°
2026-05-06 19:22 45.83131 19.59342 31916 ft 461 kts 319°
2026-05-06 19:23 45.88202 19.53784 31912 ft 460 kts 319°
2026-05-06 19:23 45.93278 19.48209 31912 ft 461 kts 319°
2026-05-06 19:24 45.98352 19.42621 31912 ft 462 kts 319°
2026-05-06 19:24 46.03430 19.37017 31912 ft 461 kts 319°
2026-05-06 19:25 46.08889 19.32131 31915 ft 465 kts 327°
2026-05-06 19:25 46.14497 19.27563 31914 ft 464 kts 327°
2026-05-06 19:26 46.20116 19.22965 31909 ft 465 kts 326°
2026-05-06 19:26 46.25734 19.18350 31907 ft 466 kts 326°
2026-05-06 19:27 46.31366 19.13709 31907 ft 467 kts 326°
2026-05-06 19:27 46.36996 19.09057 31908 ft 467 kts 326°
2026-05-06 19:28 46.42638 19.04383 31903 ft 468 kts 326°
2026-05-06 19:28 46.48277 18.99700 31904 ft 469 kts 326°
2026-05-06 19:29 46.53930 18.94993 31900 ft 470 kts 326°
2026-05-06 19:29 46.59595 18.90264 31899 ft 473 kts 326°
2026-05-06 19:30 46.65265 18.85521 31901 ft 472 kts 326°
2026-05-06 19:30 46.70950 18.80753 31900 ft 472 kts 326°
2026-05-06 19:31 46.76635 18.75973 31896 ft 475 kts 326°
2026-05-06 19:31 46.85166 18.68778 31897 ft 472 kts 326°
2026-05-06 19:32 46.90849 18.63971 31895 ft 472 kts 326°
2026-05-06 19:32 46.96545 18.59139 31890 ft 475 kts 326°
2026-05-06 19:33 47.02275 18.54353 31894 ft 476 kts 328°
2026-05-06 19:33 47.08070 18.49733 31888 ft 476 kts 328°
2026-05-06 19:34 47.13883 18.45080 31882 ft 475 kts 328°
2026-05-06 19:34 47.19672 18.40426 31885 ft 475 kts 328°
2026-05-06 19:35 47.25452 18.35764 31885 ft 473 kts 328°
2026-05-06 19:35 47.31215 18.31101 31884 ft 473 kts 327°
2026-05-06 19:36 47.36961 18.26440 31884 ft 474 kts 327°
2026-05-06 19:36 47.42717 18.21757 31877 ft 473 kts 327°
2026-05-06 19:37 47.48466 18.17068 31871 ft 474 kts 327°
2026-05-06 19:37 47.54213 18.12369 31864 ft 473 kts 327°
2026-05-06 19:38 47.59959 18.07658 31865 ft 474 kts 327°
2026-05-06 19:38 47.65705 18.02937 31857 ft 472 kts 327°
2026-05-06 19:39 47.71437 17.98214 31866 ft 472 kts 327°
2026-05-06 19:39 47.77167 17.93481 31845 ft 473 kts 327°
2026-05-06 19:40 47.82895 17.88737 31836 ft 473 kts 327°
2026-05-06 19:40 47.88624 17.83981 31839 ft 473 kts 327°
2026-05-06 19:41 47.94352 17.79213 31828 ft 473 kts 327°
2026-05-06 19:41 48.00080 17.74433 31815 ft 473 kts 327°
2026-05-06 19:42 48.05811 17.69638 31808 ft 473 kts 326°
2026-05-06 19:42 48.11546 17.64828 31796 ft 474 kts 326°
2026-05-06 19:43 48.17270 17.60014 31799 ft 473 kts 326°
2026-05-06 19:43 48.22989 17.55193 31789 ft 473 kts 326°
2026-05-06 19:44 48.28705 17.50361 31780 ft 473 kts 326°
2026-05-06 19:44 48.34414 17.45522 31785 ft 472 kts 326°
2026-05-06 19:45 48.40115 17.40678 31783 ft 472 kts 326°
2026-05-06 19:45 48.45817 17.35820 31782 ft 474 kts 326°
2026-05-06 19:46 48.51536 17.30935 31777 ft 472 kts 325°
2026-05-06 19:46 48.57217 17.26070 31787 ft 471 kts 325°
2026-05-06 19:47 48.62920 17.21173 31778 ft 472 kts 324°
2026-05-06 19:47 48.68599 17.16284 31780 ft 472 kts 324°
2026-05-06 19:48 48.74291 17.11371 31772 ft 471 kts 324°
2026-05-06 19:48 48.79740 17.06045 31767 ft 463 kts 315°
2026-05-06 19:49 48.84720 16.99894 31758 ft 462 kts 315°
2026-05-06 19:49 48.89672 16.93722 31761 ft 463 kts 315°
2026-05-06 19:50 48.94627 16.87527 31757 ft 464 kts 315°
2026-05-06 19:50 48.99573 16.81327 31760 ft 462 kts 314°
2026-05-06 19:51 49.04523 16.75101 31755 ft 462 kts 314°
2026-05-06 19:51 49.09453 16.68886 31751 ft 461 kts 314°
2026-05-06 19:52 49.14393 16.62639 31747 ft 463 kts 314°
2026-05-06 19:52 49.19334 16.56376 31746 ft 464 kts 314°
2026-05-06 19:53 49.24274 16.50096 31743 ft 462 kts 314°
2026-05-06 19:53 49.29194 16.43826 31750 ft 462 kts 314°
2026-05-06 19:54 49.34132 16.37513 31744 ft 465 kts 314°
2026-05-06 19:54 49.39082 16.31171 31751 ft 462 kts 314°
2026-05-06 19:55 49.44005 16.24845 31752 ft 463 kts 314°
2026-05-06 19:55 49.48930 16.18500 31746 ft 464 kts 314°
2026-05-06 19:56 49.53853 16.12139 31747 ft 465 kts 314°
2026-05-06 19:56 49.58770 16.05769 31752 ft 463 kts 314°
2026-05-06 19:57 49.63700 15.99365 31740 ft 464 kts 314°
2026-05-06 19:57 49.68618 15.92958 31749 ft 466 kts 314°
2026-05-06 19:58 49.73563 15.86499 31743 ft 469 kts 314°
2026-05-06 19:58 49.78524 15.80001 31750 ft 470 kts 314°
2026-05-06 19:59 49.83489 15.73480 31748 ft 469 kts 314°
2026-05-06 19:59 49.88468 15.66921 31747 ft 472 kts 314°
2026-05-06 20:00 49.93460 15.60325 31746 ft 475 kts 314°
2026-05-06 20:00 49.98459 15.53705 31747 ft 472 kts 314°
2026-05-06 20:01 50.03450 15.47075 31736 ft 474 kts 315°
2026-05-06 20:01 50.08451 15.40413 31739 ft 474 kts 315°
2026-05-06 20:02 50.13463 15.33718 31737 ft 475 kts 314°
2026-05-06 20:02 50.18466 15.27015 31748 ft 477 kts 314°
2026-05-06 20:03 50.23470 15.20292 31743 ft 477 kts 314°
2026-05-06 20:03 50.28487 15.13532 31746 ft 476 kts 314°
2026-05-06 20:04 50.33491 15.06769 31745 ft 478 kts 314°
2026-05-06 20:04 50.38520 14.99953 31749 ft 480 kts 314°
2026-05-06 20:05 50.43538 14.93132 31749 ft 481 kts 314°
2026-05-06 20:05 50.49005 14.87078 31754 ft 489 kts 329°
2026-05-06 20:06 50.55468 14.83419 31754 ft 496 kts 335°
2026-05-06 20:06 50.61375 14.78274 31756 ft 483 kts 316°
2026-05-06 20:07 50.65874 14.70746 31762 ft 469 kts 298°
2026-05-06 20:07 50.68675 14.61695 31767 ft 458 kts 285°
2026-05-06 20:08 50.70885 14.52335 31768 ft 457 kts 284°
2026-05-06 20:08 50.72901 14.42864 31769 ft 458 kts 283°
2026-05-06 20:09 50.74885 14.33398 31763 ft 456 kts 282°
2026-05-06 20:09 50.76866 14.23919 31770 ft 459 kts 282°
2026-05-06 20:10 50.78852 14.14393 31766 ft 456 kts 282°
2026-05-06 20:10 50.80814 14.04948 31578 ft 454 kts 282°
2026-05-06 20:11 50.81794 14.00212 31204 ft 458 kts 282°
2026-05-06 20:11 50.82782 13.95415 30762 ft 463 kts 282°
2026-05-06 20:11 50.83771 13.90619 30238 ft 459 kts 282°
2026-05-06 20:11 50.84748 13.85880 29825 ft 452 kts 282°
2026-05-06 20:12 50.85708 13.81205 29365 ft 446 kts 282°
2026-05-06 20:12 50.86656 13.76575 28890 ft 442 kts 282°
2026-05-06 20:12 50.87592 13.71995 28401 ft 437 kts 282°
2026-05-06 20:12 50.88515 13.67461 27909 ft 433 kts 283°
2026-05-06 20:13 50.89430 13.62961 27417 ft 429 kts 283°
2026-05-06 20:13 50.90332 13.58512 26937 ft 424 kts 283°
2026-05-06 20:13 50.91222 13.54108 26443 ft 420 kts 283°
2026-05-06 20:13 50.92110 13.49705 25948 ft 426 kts 283°
2026-05-06 20:14 50.93017 13.45184 25444 ft 436 kts 283°
2026-05-06 20:14 50.93931 13.40635 24904 ft 433 kts 284°
2026-05-06 20:14 50.94835 13.36130 24386 ft 429 kts 284°
2026-05-06 20:14 50.95730 13.31658 23862 ft 424 kts 284°
2026-05-06 20:15 50.96613 13.27236 23352 ft 420 kts 284°
2026-05-06 20:15 50.97487 13.22849 22838 ft 416 kts 284°
2026-05-06 20:15 50.98350 13.18506 22327 ft 413 kts 284°
2026-05-06 20:15 50.99204 13.14195 21815 ft 409 kts 284°
2026-05-06 20:16 51.00051 13.09913 21297 ft 406 kts 284°
2026-05-06 20:16 51.00889 13.05668 20790 ft 403 kts 284°
2026-05-06 20:16 51.01718 13.01457 20277 ft 400 kts 285°
2026-05-06 20:16 51.02540 12.97271 19770 ft 396 kts 285°
2026-05-06 20:17 51.03353 12.93125 19261 ft 393 kts 285°
2026-05-06 20:17 51.04159 12.89003 18751 ft 390 kts 285°
2026-05-06 20:17 51.04957 12.84917 18267 ft 387 kts 285°
2026-05-06 20:17 51.05746 12.80866 17770 ft 385 kts 285°
2026-05-06 20:18 51.06531 12.76824 17254 ft 382 kts 285°
2026-05-06 20:18 51.07314 12.72816 16765 ft 380 kts 285°
2026-05-06 20:18 51.08091 12.68838 16274 ft 377 kts 285°
2026-05-06 20:18 51.08862 12.64881 15775 ft 374 kts 285°
2026-05-06 20:19 51.09627 12.60946 15293 ft 372 kts 285°
2026-05-06 20:19 51.10385 12.57038 14804 ft 369 kts 286°
2026-05-06 20:19 51.11137 12.53153 14309 ft 367 kts 286°
2026-05-06 20:19 51.11882 12.49299 13823 ft 364 kts 285°
2026-05-06 20:20 51.12624 12.45452 13351 ft 362 kts 286°
2026-05-06 20:20 51.13356 12.41645 12861 ft 360 kts 286°
2026-05-06 20:20 51.14083 12.37857 12377 ft 358 kts 286°
2026-05-06 20:20 51.14806 12.34084 11901 ft 356 kts 285°
2026-05-06 20:21 51.15522 12.30342 11425 ft 353 kts 285°
2026-05-06 20:21 51.16233 12.26619 10956 ft 351 kts 285°
2026-05-06 20:21 51.16937 12.22921 10512 ft 348 kts 285°
2026-05-06 20:21 51.17624 12.19313 10447 ft 333 kts 285°
2026-05-06 20:22 51.18277 12.15872 10355 ft 317 kts 285°
2026-05-06 20:22 51.18895 12.12615 10197 ft 299 kts 285°
2026-05-06 20:22 51.19478 12.09531 10085 ft 283 kts 285°
2026-05-06 20:22 51.20033 12.06587 9974 ft 272 kts 285°
2026-05-06 20:23 51.20570 12.03735 9717 ft 268 kts 285°
2026-05-06 20:23 51.21105 12.00888 9330 ft 269 kts 285°
2026-05-06 20:23 51.21639 11.98047 9009 ft 267 kts 285°
2026-05-06 20:23 51.22169 11.95225 8693 ft 266 kts 285°
2026-05-06 20:24 51.22695 11.92419 8372 ft 264 kts 285°
2026-05-06 20:24 51.23218 11.89620 8051 ft 263 kts 285°
2026-05-06 20:24 51.23739 11.86834 7724 ft 262 kts 285°
2026-05-06 20:24 51.24257 11.84057 7392 ft 261 kts 285°
2026-05-06 20:25 51.24772 11.81293 7090 ft 260 kts 285°
2026-05-06 20:25 51.25284 11.78538 6761 ft 259 kts 285°
2026-05-06 20:25 51.25794 11.75792 6439 ft 258 kts 286°
2026-05-06 20:25 51.26363 11.73095 6112 ft 258 kts 298°
2026-05-06 20:26 51.27533 11.70959 5708 ft 260 kts 327°
2026-05-06 20:26 51.29216 11.70002 5356 ft 260 kts 356°
2026-05-06 20:26 51.30974 11.70469 5014 ft 258 kts 26°
2026-05-06 20:26 51.32360 11.72223 4700 ft 255 kts 51°
2026-05-06 20:27 51.33419 11.74474 4457 ft 252 kts 54°
2026-05-06 20:27 51.34434 11.76737 4179 ft 250 kts 54°
2026-05-06 20:27 51.35444 11.78990 3867 ft 250 kts 55°
2026-05-06 20:27 51.36451 11.81230 3591 ft 248 kts 54°
2026-05-06 20:28 51.37450 11.83445 3356 ft 245 kts 55°
2026-05-06 20:28 51.38446 11.85655 3114 ft 243 kts 55°
2026-05-06 20:28 51.39180 11.88036 2899 ft 237 kts 73°
2026-05-06 20:28 51.39537 11.90573 2680 ft 231 kts 79°
2026-05-06 20:29 51.39765 11.93082 2473 ft 225 kts 82°
2026-05-06 20:29 51.39923 11.95452 2503 ft 199 kts 83°
2026-05-06 20:29 51.40046 11.97553 2506 ft 183 kts 83°
2026-05-06 20:29 51.40148 11.99499 2503 ft 168 kts 84°
2026-05-06 20:30 51.40238 12.01296 2506 ft 157 kts 84°
2026-05-06 20:30 51.40408 12.04749 2427 ft 158 kts 84°
2026-05-06 20:30 51.40491 12.06465 2219 ft 153 kts 83°
2026-05-06 20:31 51.40573 12.08162 2018 ft 152 kts 83°
2026-05-06 20:31 51.40654 12.09837 1815 ft 150 kts 83°
2026-05-06 20:31 51.40734 12.11495 1624 ft 149 kts 82°
2026-05-06 20:31 51.40824 12.13149 1416 ft 150 kts 84°
2026-05-06 20:32 51.40882 12.14807 1199 ft 149 kts 82°
2026-05-06 20:32 51.40977 12.16462 1001 ft 150 kts 84°
2026-05-06 20:32 51.41049 12.18146 790 ft 153 kts 83°
2026-05-06 20:32 51.41131 12.19838 593 ft 151 kts 84°
2026-05-06 20:33 51.41209 12.21456 485 ft 132 kts 84°
2026-05-06 20:33 51.41265 12.22682 485 ft 92 kts 85°
2026-05-06 20:33 51.41304 12.23500 485 ft 47 kts 85°
2026-05-06 20:33 51.41304 12.23910 485 ft 33 kts 101°
2026-05-06 20:34 51.41246 12.24158 485 ft 12 kts 114°
2026-05-06 20:34 51.41235 12.24198 485 ft 0 kts 114°
2026-05-06 20:35 51.41234 12.24203 485 ft 1 kts 114°
2026-05-06 20:35 51.41224 12.24238 485 ft 5 kts 114°
2026-05-06 20:35 51.41200 12.24320 485 ft 10 kts 114°
2026-05-06 20:36 51.41180 12.24438 485 ft 10 kts 90°
2026-05-06 20:36 51.41169 12.24548 485 ft 9 kts 127°
2026-05-06 20:36 51.41116 12.24606 485 ft 9 kts 149°
2026-05-06 20:36 51.41043 12.24650 485 ft 11 kts 168°
2026-05-06 20:37 51.40962 12.24666 485 ft 11 kts 175°
2026-05-06 20:37 51.40884 12.24674 485 ft 9 kts 176°
2026-05-06 20:37 51.40860 12.24675 485 ft 0 kts 189°
2026-05-06 20:37 51.40855 12.24670 485 ft 1 kts 226°
2026-05-06 20:38 51.40841 12.24627 485 ft 7 kts 236°
2026-05-06 20:38 51.40822 12.24567 485 ft 5 kts 252°
2026-05-06 20:38 51.40816 12.24519 485 ft 0 kts 263°